This is the latest recevied weather packets stored in our database for station/object EA7KZ-10. If no packets are shown the sender has not sent any weather packets the latest 10 day(s).
| Time | Temp. | Humidity | Pressure | Rain* | Wind** | Luminosity | Snow |
|---|---|---|---|---|---|---|---|
| 1778185481 | 17.78° C | 58% | 1012.1 hPa | - | - | - | - |
| 1778184881 | 17.78° C | 59% | 1012.1 hPa | - | - | - | - |
| 1778184281 | 17.78° C | 59% | 1012 hPa | - | - | - | - |
| 1778183681 | 17.78° C | 58% | 1011.6 hPa | - | - | - | - |
| 1778183081 | 17.78° C | 58% | 1011.6 hPa | - | - | - | - |
| 1778182482 | 17.78° C | 59% | 1011.4 hPa | - | - | - | - |
| 1778181882 | 17.78° C | 58% | 1011.2 hPa | - | - | - | - |
| 1778181281 | 17.78° C | 57% | 1011 hPa | - | - | - | - |
| 1778180681 | 17.78° C | 58% | 1010.8 hPa | - | - | - | - |
| 1778180081 | 18.33° C | 58% | 1010.7 hPa | - | - | - | - |
| 1778179481 | 18.33° C | 58% | 1010.5 hPa | - | - | - | - |
| 1778178881 | 18.33° C | 56% | 1010.4 hPa | - | - | - | - |
| 1778178281 | 18.33° C | 54% | 1010.3 hPa | - | - | - | - |
| 1778177682 | 18.33° C | 55% | 1010.1 hPa | - | - | - | - |
| 1778177081 | 18.33° C | 56% | 1009.9 hPa | - | - | - | - |
| 1778176481 | 18.89° C | 56% | 1009.7 hPa | - | - | - | - |
| 1778175881 | 18.89° C | 57% | 1009.7 hPa | - | - | - | - |
| 1778175281 | 18.89° C | 53% | 1009.8 hPa | - | - | - | - |
| 1778174681 | 18.89° C | 52% | 1009.8 hPa | - | - | - | - |
| 1778174082 | 18.89° C | 50% | 1009.8 hPa | - | - | - | - |
| 1778173482 | 18.89° C | 49% | 1009.8 hPa | - | - | - | - |
| 1778172882 | 19.44° C | 50% | 1009.4 hPa | - | - | - | - |
| 1778172281 | 19.44° C | 50% | 1009.1 hPa | - | - | - | - |
| 1778171681 | 19.44° C | 54% | 1009.1 hPa | - | - | - | - |
| 1778171081 | 19.44° C | 54% | 1009 hPa | - | - | - | - |
* Rain since midnight (hover to see other rain measurements)
** Current wind speed in m/s (hover to see current wind gust speed)